THA217 VTBS-VTSP

Flight info

Callsign THA217
Flight time N/A
Altitude 38000
Route VANKO1E VANKO Y8 SAVSA SAVSA1C
Aircraft A333/H-SDE3FGHIJ3J5M1RWYZ/EB1D1

Departure

Time N/A
Airport Suvarnabhumi Airport (VTBS)

Arrival

Time 2026-04-27 20:50
Airport Phuket International Airport (VTSP)
Time Latitude Longitude Altitude Speed Heading
2026-04-27 20:45 8.04567 98.13742 3005 ft 169 kts 103°
2026-04-27 20:45 8.04538 98.14869 2998 ft 158 kts 79°
2026-04-27 20:46 8.04928 98.15884 2920 ft 153 kts 63°
2026-04-27 20:46 8.05436 98.16771 2761 ft 139 kts 60°
2026-04-27 20:46 8.05937 98.17580 2608 ft 138 kts 59°
2026-04-27 20:46 8.06462 98.18414 2407 ft 142 kts 60°
2026-04-27 20:47 8.06997 98.19262 2226 ft 144 kts 59°
2026-04-27 20:47 8.07536 98.20112 2034 ft 143 kts 59°
2026-04-27 20:47 8.08076 98.20962 1874 ft 144 kts 59°
2026-04-27 20:47 8.08615 98.21809 1700 ft 143 kts 59°
2026-04-27 20:48 8.09153 98.22654 1545 ft 143 kts 58°
2026-04-27 20:48 8.09509 98.23213 1396 ft 142 kts 58°
2026-04-27 20:48 8.10041 98.24048 1244 ft 141 kts 58°
2026-04-27 20:48 8.10658 98.25186 1038 ft 140 kts 75°
2026-04-27 20:49 8.10818 98.26151 870 ft 140 kts 84°
2026-04-27 20:49 8.10909 98.27126 705 ft 140 kts 85°
2026-04-27 20:49 8.10996 98.28102 524 ft 139 kts 85°
2026-04-27 20:49 8.11083 98.29062 330 ft 136 kts 85°
2026-04-27 20:50 8.11170 98.30012 170 ft 136 kts 84°
2026-04-27 20:50 8.11255 98.30957 35 ft 130 kts 82°
2026-04-27 20:50 8.11304 98.31480 40 ft 94 kts 84°
2026-04-27 20:50 8.11355 98.32032 59 ft 41 kts 84°
2026-04-27 20:51 8.11369 98.32258 74 ft 17 kts 95°
2026-04-27 20:51 8.11354 98.32333 75 ft 16 kts 107°